STARLINK-33534 (63499 NORAD) Tracking and Keplerian Element Data

This shows tracking and keplerian element data for the satellite.

Feedback or suggestion? Click here.




ElementValue
Catalog63499
NameSTARLINK-33534
Epoch Orbit4052
Epoch Day353.84097096
Epoch Year2025
RAAN150.8891
Inclination53.1595
Eccentricity7.03E-05
Argument of Perigee65.7386
Mean Anonmoly294.3689
Mean Motion15.302168
Decay Rate0.00031111
L11 63499U 25071G 25353.84097096 .00031111 00000+0 10576-2 0 9994
L22 63499 53.1595 150.8891 0000703 65.7386 294.3689 15.30216800 40526



Live tracking and technical data element details for STARLINK-33534 (NORAD 63499). STARLINK-33534 can be tracked NOW for your location showing map with azimuth and elevation plus other details from your city location.







IsCatalogInMostPopularTable: catalog: 63499, numindb: 2
Update: records affected: 1



GetName: 63499 STARLINK-33534

Hit Count: updated at: Mon, 09 Feb 2026 09:37:52 GMT